Location: Tel Aviv
(32.0670°N, 34.7670°E)
Time: 08:04:18
(UTC+02:00)

Transit 2A Rocket - Pass Details

Date: 10 December 2023
Orbit: 590 x 905 km, 66.7° (Epoch: 01 March)

Event Time Altitude Azimuth Distance (km) Brightness Sun altitude
Rises 18:19:40 0° 185° (S) 3,134 8.4 -21.2°
Reaches altitude 10° 18:22:16 10° 177° (S) 2,162 7.5 -21.8°
Enters shadow 18:25:23 30° 145° (SE) 1,204 5.8 -22.4°
